| time (UTC) | temp F | wind direction | speed MPH | gust MPH | rain 1hr in | rain 24hr in | rain mn in | humidity % | barometer mb |
| 20260502180219 | 52 | 144 | 3.0 | 8.0 | 0.00 | 0.00 | 0.00 | 93 | 1015.3 |
| 20260502170241 | 50 | 156 | 3.0 | 5.0 | 0.00 | 0.00 | 0.00 | 96 | 1015.2 |
| 20260502163237 | 50 | 142 | 4.0 | 7.0 | 0.00 | 0.00 | 0.00 | 96 | 1015.0 |
| 20260502150223 | 50 | 97 | 0.0 | 3.0 | 0.00 | 0.00 | 0.00 | 96 | 1014.1 |
| 20260502130236 | 49 | 127 | 2.0 | 7.0 | 0.00 | 0.00 | 0.00 | 96 | 1014.2 |
| 20260502120227 | 49 | 106 | 2.0 | 3.0 | 0.00 | 0.00 | 0.00 | 96 | 1014.4 |
| 20260502113223 | 49 | 328 | 0.0 | 0.0 | 0.00 | 0.00 | 0.00 | 96 | 1014.4 |
| 20260502110218 | 50 | 328 | 0.0 | 0.0 | 0.00 | 0.00 | 0.00 | 95 | 1014.5 |
| 20260502103244 | 50 | 328 | 0.0 | 0.0 | 0.00 | 0.00 | 0.00 | 95 | 1015.0 |
| 20260502100240 | 50 | 328 | 0.0 | 0.0 | 0.00 | 0.00 | 0.00 | 95 | 1015.0 |
| 20260502090230 | 50 | 328 | 0.0 | 0.0 | 0.00 | 0.00 | 0.00 | 95 | 1015.7 |
| 20260502070245 | 51 | 328 | 0.0 | 0.0 | 0.00 | 0.00 | 0.00 | 94 | 1016.1 |
| 20260502063240 | 52 | 328 | 0.0 | 0.0 | 0.00 | 0.00 | 0.00 | 93 | 1016.1 |
| 20260502060236 | 52 | 328 | 0.0 | 0.0 | 0.00 | 0.00 | 0.00 | 93 | 1016.4 |
| 20260502053231 | 52 | 328 | 0.0 | 0.0 | 0.00 | 0.00 | 0.00 | 92 | 1016.1 |
| 20260502050227 | 52 | 328 | 0.0 | 1.0 | 0.00 | 0.00 | 0.00 | 90 | 1016.0 |
| 20260502043222 | 53 | 328 | 0.0 | 0.0 | 0.00 | 0.00 | 0.00 | 89 | 1015.8 |
| 20260502030239 | 58 | 325 | 1.0 | 2.0 | 0.00 | 0.00 | 0.00 | 80 | 1015.6 |
| 20260502023235 | 61 | 325 | 0.0 | 1.0 | 0.00 | 0.00 | 0.00 | 77 | 1015.1 |
| 20260502020230 | 63 | 325 | 1.0 | 2.0 | 0.00 | 0.00 | 0.00 | 75 | 1015.1 |
| 20260502010222 | 67 | 329 | 2.0 | 3.0 | 0.00 | 0.00 | 0.00 | 69 | 1015.1 |
| 20260502003218 | 69 | 322 | 1.0 | 4.0 | 0.00 | 0.00 | 0.00 | 68 | 1015.1 |
| 20260501233238 | 70 | 321 | 2.0 | 7.0 | 0.00 | 0.00 | 0.00 | 63 | 1015.4 |
| 20260501230234 | 71 | 355 | 2.0 | 4.0 | 0.00 | 0.00 | 0.00 | 62 | 1015.7 |
| 20260501223230 | 72 | 340 | 2.0 | 4.0 | 0.00 | 0.00 | 0.00 | 60 | 1016.4 |
| 20260501220225 | 73 | 342 | 2.0 | 6.0 | 0.00 | 0.00 | 0.00 | 57 | 1016.8 |
| 20260501213221 | 74 | 355 | 1.0 | 3.0 | 0.00 | 0.00 | 0.00 | 55 | 1017.1 |
| 20260501210246 | 74 | 348 | 1.0 | 8.0 | 0.00 | 0.00 | 0.00 | 54 | 1017.1 |
| 20260501203242 | 74 | 348 | 1.0 | 5.0 | 0.00 | 0.00 | 0.00 | 55 | 1017.4 |
| 20260501200239 | 73 | 355 | 1.0 | 4.0 | 0.00 | 0.00 | 0.00 | 59 | 1017.5 |
| 20260501193237 | 71 | 355 | 2.0 | 3.0 | 0.00 | 0.00 | 0.00 | 61 | 1017.6 |